Track COSMOS 2429 now! 10-day predictions COSMOS 2429 is classified as:
1 32052U 07038A 21020.84612036 .00000023 00000-0 85604-5 0 9998 2 32052 82.9788 219.9658 0038185 347.1900 12.8282 13.74934438670467